Regional Weather Roundup
Issued by NWS Upton, NY

Current Version | Previous Version | Text Only | Print | Product List | Glossary On
Versions: 1 2 3 4 5 6 7 8 9 10 11 12 13 14 15 16 17 18 19 20 21 22 23 24 25 26 27
000 ASUS41 KOKX 290804 RWROKX REGIONAL WEATHER ROUNDUP NATIONAL WEATHER SERVICE NEW YORK NY 400 AM EDT FRI APR 29 2016 NOTE: "FAIR" INDICATES FEW OR NO CLOUDS BELOW 12,000 FEET WITH NO SIGNIFICANT WEATHER AND/OR OBSTRUCTIONS TO VISIBILITY. NYZ071-072-176-178-NJZ106-104-290900- NEW YORK CITY METRO AREA CITY SKY/WX TMP DP RH WIND PRES REMARKS CENTRAL PARK CLOUDY 50 33 52 VRB5 30.08R LAGUARDIA APRT CLOUDY 50 34 54 E7 30.05R KENNEDY INTL CLOUDY 49 38 65 NE6 30.07R NEWARK/LIBERTY CLOUDY 50 38 63 E7 30.05R BRNX BOT. GARD N/A 48 32 53 E7 30.07R TETERBORO CLOUDY 50 38 63 CALM 30.04R $$ NYZ177-179-078>081-290900- LONG ISLAND NEW YORK CITY SKY/WX TMP DP RH WIND PRES REMARKS FARMINGDALE CLOUDY 48 37 65 E5 30.06S ISLIP CLOUDY 47 36 65 E6 30.06R SHIRLEY CLOUDY 47 37 68 CALM 30.07S RIVERHEAD N/A 46 39 76 E1 30.08R WESTHAMPTON CLOUDY 44 36 73 NE6 30.09R EAST HAMPTON CLOUDY 46 36 69 E5 30.08R MONTAUK POINT N/A 46 38 73 NE8 30.11R $$ NYZ052-065-067-290900- HUDSON VALLEY CITY SKY/WX TMP DP RH WIND PRES REMARKS WHITE PLAINS CLOUDY 46 39 76 E3 30.05R NEWBURGH NOT AVBL MONTGOMERY CLOUDY 47 42 83 N5 30.04R POUGHKEEPSIE CLOUDY 50 40 68 E3 30.05R ALBANY CLOUDY 39 19 44 N9 30.10R WCI 33 $$ NJZ001-105-106-008-010-013-015-019>022-104-290900- NEW JERSEY CITY SKY/WX TMP DP RH WIND PRES REMARKS NEWARK/LIBERTY CLOUDY 50 38 63 E7 30.05R TETERBORO CLOUDY 50 38 63 CALM 30.04R CALDWELL CLOUDY 48 40 73 CALM 30.06R MORRISTOWN CLOUDY 46 39 76 CALM 30.05S SOMERVILLE CLOUDY 46 41 82 CALM 30.03S SUSSEX CLOUDY 47 43 86 CALM 30.04S ANDOVER N/A 46 41 82 CALM 30.03S TRENTON CLOUDY 45 42 89 NE3 30.04R MILLVILLE CLOUDY 45 44 97 NE8 30.02R FOG ATLANTIC CITY CLOUDY 47 46 97 NE10 30.02R FOG WRIGHTSTOWN CLOUDY 45 43 93 N7 30.02R TOMS RIVER CLOUDY 45 39 81 NE6 30.04S BELMAR CLOUDY 45 43 93 CALM 30.06R $$ PAZ047>061-062-071-290900- EASTERN PENNSYLVANIA CITY SKY/WX TMP DP RH WIND PRES REMARKS PHILADELPHIA CLOUDY 46 40 79 NE8 30.05R ALLENTOWN CLOUDY 46 40 79 CALM 30.03S SCRANTON CLOUDY 45 42 89 CALM 30.01R $$ CTZ002-004>006-009-010-012-RIZ004-006-007-MAZ004-011-015-290900- SOUTHERN NEW ENGLAND IN CT CITY SKY/WX TMP DP RH WIND PRES REMARKS BRADLEY INTL CLOUDY 45 35 68 SE6 30.09R HARTFORD LGT RAIN 46 40 79 E5 30.10R DANBURY CLOUDY 45 39 79 NE5 30.08R WTRBRY/OXFORD N/A 43 37 81 E6 30.09R BRIDGEPORT CLOUDY 48 37 65 E10 30.08R MERIDEN LGT RAIN 46 39 76 E3 30.10R NEW HAVEN CLOUDY 46 39 76 NE6 30.09R CHESTER FAIR 43 41 93 E5 30.09R GROTON LGT RAIN 44 44 100 NE7 30.10R WILLIMANTIC LGT RAIN 45 37 73 CALM 30.11R IN RI CITY SKY/WX TMP DP RH WIND PRES REMARKS PROVIDENCE CLOUDY 45 35 68 SE3 30.12R BLOCK ISLAND CLOUDY 45 37 73 NE9 30.11R WESTERLY LGT RAIN 44 37 76 E5 30.11S IN MA CITY SKY/WX TMP DP RH WIND PRES REMARKS BOSTON CLOUDY 44 36 73 SE7 30.13R WORCESTER CLOUDY 41 33 73 SE5 30.09R WESTFIELD CLOUDY 46 37 71 CALM 30.09R PROVINCETOWN PTCLDY 42 35 76 E3 30.14R NANTUCKET LGT RAIN 45 34 65 E8 30.11R $$ ANZ330-335-338-340-345-350-353-355-290900- COASTAL MARINE OBSERVATIONS STATION/POSITION TIME SKY/WX TEMP WIND PRES VSBY WAVE AIR SEA DIR/SP/G HT/PER (UTC) (F) (DEG/KT/KT) (MB) (MI) (FT/S) NY HARB ENTRANCE 0650 48 51 70/ 8/ 10 1016.7 2/ 6 20S FIRE ISLAND 0650 47 49 70/ 10/ 10 1017.1 3/ 6 GREAT SOUTH BAY 0700 49 57 90/ 8/ 12 N/A 23 SSW MONTAUK P 0750 46 47 90/ 14/ 16 1017.9 3/ 4 15 E BARNEGAT LI 0722 51 N/A 4/ 6 HUDSON CANYON NOT AVBL KINGS POINT 0700 49 53 1017.0 EXECUTION ROCKS NOT AVBL CENTRAL LI SOUND 0700 47 90/ 10/ 12 N/A 1 EASTERN LI SOUND 0700 46 47 80/ 8/ 10 N/A ROBBINS REEF 0706 49 90/ 11/ 13 1016.4 $$ >>>>>>>>>>>>>>>>>>>>>>>>>>>> KEY <<<<<<<<<<<<<<<<<<<<<<<<<<< > < > SKY/WX - SKY CONDITION/PRESENT WEATHER < > TMP - TEMPERATURE IN FAHRENHEIT < > DP - DEWPOINT IN FAHRENHEIT < > RH - RELATIVE HUMIDITY IN PERCENT < > WIND - DIRECTION AND SPEED IN MPH < > PRES - MEAN SEA LEVEL PRESSURE IN INCHES OF HG < > WCI - WIND CHILL INDEX < > VSB - VISIBILITY IN MILES < > HX - HEAT INDEX < > TC - TEMPERATURE IN CELSIUS < > VRB - VARIABLE WIND DIRECTION < > < >>>>>>>>>>>>>>>>>>>>>>>>>>>> KEY <<<<<<<<<<<<<<<<<<<<<<<<<<<

USA.gov is the U.S. government's official web portal to all federal, state and local government web resources and services.